CW9455 Weather Reports


time (UTC)temp
F
wind
direction
speed
knots
gust
knots
rain 1hr
in
rain 24hr
in
rain mn
in
humidity
%
barometer
mb
20190221213438 46 316 4.3 10.4 0.00 0.66 0.50 74 1011.1
20190221212940 46 321 5.2 10.4 0.00 0.66 0.50 74 1011.3
20190221212436 46 275 5.2 12.2 0.00 0.66 0.50 74 1011.1
20190221211938 46 325 6.1 12.2 0.00 0.66 0.50 74 1011.0
20190221211436 46 327 6.1 12.2 0.00 0.66 0.50 74 1011.0
20190221210937 46 332 6.1 12.2 0.00 0.66 0.50 75 1010.8
20190221210437 46 311 6.1 11.3 0.00 0.66 0.50 75 1010.8
20190221205934 46 346 6.1 11.3 0.00 0.66 0.50 75 1010.8
20190221205435 46 306 6.1 11.3 0.00 0.66 0.50 75 1010.8
20190221204935 46 333 5.2 11.3 0.00 0.66 0.50 75 1010.9
20190221204434 46 311 5.2 11.3 0.00 0.66 0.50 76 1010.9
20190221203935 46 294 5.2 12.2 0.00 0.66 0.50 77 1011.0
20190221203438 46 293 5.2 12.2 0.00 0.66 0.50 77 1011.0
20190221202935 46 318 5.2 11.3 0.00 0.66 0.50 77 1011.0
20190221202434 46 341 5.2 8.7 0.00 0.66 0.50 77 1010.7
20190221201935 46 294 5.2 10.4 0.00 0.66 0.50 77 1010.8
20190221201435 46 295 5.2 11.3 0.00 0.66 0.50 77 1010.8
20190221200934 46 21 5.2 11.3 0.00 0.66 0.50 77 1010.7
20190221200436 46 312 4.3 10.4 0.00 0.66 0.50 77 1010.7
20190221195934 46 343 4.3 9.6 0.00 0.66 0.50 79 1010.5
20190221195434 45 319 5.2 9.6 0.00 0.66 0.50 78 1010.5
20190221194935 45 303 4.3 9.6 0.00 0.66 0.50 78 1010.5
20190221194434 46 288 3.5 8.7 0.00 0.66 0.50 78 1010.4
20190221193935 46 326 4.3 9.6 0.00 0.66 0.50 78 1010.5
20190221193438 45 338 5.2 9.6 0.00 0.66 0.50 79 1010.5
20190221192932 45 340 5.2 9.6 0.00 0.66 0.50 79 1010.4
20190221192432 45 330 5.2 9.6 0.00 0.66 0.50 79 1010.2
20190221191934 45 346 4.3 9.6 0.00 0.66 0.50 80 1010.3
20190221191433 45 348 4.3 9.6 0.00 0.66 0.50 80 1010.3
20190221190932 45 339 4.3 11.3 0.00 0.66 0.50 80 1010.3
20190221190433 44 0 5.2 11.3 0.00 0.66 0.50 80 1010.5
20190221185933 44 314 5.2 10.4 0.00 0.66 0.50 81 1010.3
20190221185432 44 302 5.2 10.4 0.00 0.66 0.50 81 1010.4
20190221184933 44 12 5.2 10.4 0.00 0.66 0.50 81 1010.4
20190221184432 43 0 5.2 10.4 0.00 0.66 0.50 82 1010.4
20190221183934 44 349 5.2 9.6 0.00 0.66 0.50 82 1010.3
20190221183433 43 317 5.2 12.2 0.00 0.66 0.50 82 1010.2
20190221182934 43 322 6.1 12.2 0.00 0.66 0.50 82 1010.3
20190221182433 43 338 6.1 11.3 0.00 0.66 0.50 82 1010.4
20190221181932 43 14 5.2 11.3 0.00 0.66 0.50 83 1010.5
20190221181432 42 300 6.1 12.2 0.00 0.66 0.50 83 1010.5
20190221180933 42 342 6.1 12.2 0.00 0.66 0.50 84 1010.5
20190221180432 42 342 5.2 10.4 0.00 0.66 0.50 84 1010.5
20190221175932 42 302 4.3 11.3 0.00 0.66 0.50 84 1010.5
20190221175432 42 317 5.2 13.0 0.00 0.66 0.50 84 1010.4
20190221174933 41 19 6.1 13.0 0.00 0.66 0.50 85 1010.4
20190221174431 41 5 6.1 12.2 0.00 0.66 0.50 85 1010.5
20190221173932 41 10 6.1 12.2 0.00 0.66 0.50 85 1010.4
20190221173433 41 302 6.1 11.3 0.00 0.66 0.50 86 1010.4
20190221172932 41 296 6.1 11.3 0.00 0.66 0.50 86 1010.4
20190221172434 40 348 5.2 11.3 0.00 0.66 0.50 87 1010.4
20190221171933 40 355 5.2 13.0 0.00 0.66 0.50 88 1010.4
20190221171430 39 313 6.1 13.0 0.00 0.66 0.50 88 1010.3
20190221170928 39 19 7.0 13.0 0.00 0.66 0.50 89 1010.3
20190221170429 39 327 6.1 12.2 0.00 0.66 0.50 89 1010.3
20190221165926 38 5 6.1 13.0 0.00 0.66 0.50 90 1010.5
20190221165425 38 288 6.1 13.0 0.00 0.66 0.50 90 1010.5
20190221164927 38 313 6.1 13.0 0.00 0.66 0.50 90 1010.7
20190221164426 38 337 6.1 13.0 0.00 0.66 0.50 90 1010.8
20190221163926 38 318 7.0 13.0 0.00 0.66 0.50 90 1010.9
20190221163427 38 346 7.0 14.8 0.00 0.66 0.50 90 1010.9
20190221162925 38 342 7.0 14.8 0.00 0.66 0.50 90 1011.0
20190221162425 38 349 7.0 12.2 0.00 0.66 0.50 91 1011.0
20190221161925 38 329 7.0 14.8 0.00 0.66 0.50 91 1011.0
20190221161424 37 9 7.8 14.8 0.00 0.66 0.50 90 1011.0
20190221160924 38 317 7.8 13.9 0.00 0.66 0.50 91 1011.0
20190221160425 38 0 8.7 15.6 0.00 0.66 0.50 91 1010.9
20190221155926 38 5 7.8 15.6 0.00 0.66 0.50 91 1010.8
20190221155424 38 21 7.0 13.0 0.00 0.66 0.50 91 1010.8
20190221154925 38 341 6.1 13.9 0.00 0.66 0.50 91 1010.8
20190221154422 38 344 6.1 13.9 0.00 0.66 0.50 91 1010.7
20190221153923 37 0 6.1 11.3 0.00 0.66 0.50 91 1010.5
20190221153422 37 0 6.1 11.3 0.00 0.66 0.50 91 1010.7
20190221152922 37 331 5.2 10.4 0.00 0.66 0.50 91 1010.5
20190221152422 37 319 4.3 8.7 0.00 0.66 0.50 91 1010.4
20190221151922 37 341 4.3 8.7 0.00 0.66 0.50 91 1010.4
20190221151422 37 342 4.3 8.7 0.00 0.66 0.50 91 1010.3
20190221150923 37 355 3.5 8.7 0.00 0.66 0.50 91 1010.3
20190221150422 37 15 2.6 7.0 0.00 0.66 0.50 91 1010.5
20190221145922 37 346 1.7 7.0 0.00 0.66 0.50 91 1010.2
20190221145420 37 314 1.7 6.1 0.00 0.66 0.50 91 1010.2
20190221144921 37 324 1.7 6.1 0.00 0.66 0.50 91 1010.1
20190221144420 37 15 1.7 6.1 0.00 0.66 0.50 91 1010.2
20190221143922 37 0 2.6 6.1 0.00 0.66 0.50 91 1010.2
20190221143421 37 17 2.6 6.1 0.00 0.66 0.50 91 1010.3
20190221142920 37 355 2.6 5.2 0.00 0.66 0.50 92 1010.4
20190221142420 36 355 1.7 5.2 0.00 0.66 0.50 91 1010.3
20190221141921 36 19 1.7 4.3 0.00 0.66 0.50 91 1010.4
20190221141420 36 0 1.7 4.3 0.00 0.66 0.50 91 1010.1
20190221140921 36 355 1.7 4.3 0.00 0.66 0.50 92 1010.0
20190221140417 36 316 0.9 4.3 0.00 0.66 0.50 92 1010.0
20190221135919 36 355 0.9 4.3 0.00 0.66 0.50 92 1010.0
20190221135418 36 0 1.7 6.1 0.00 0.66 0.50 92 1010.0
20190221134918 37 0 1.7 6.1 0.00 0.66 0.50 92 1010.0
20190221134418 37 19 1.7 4.3 0.00 0.66 0.50 92 1010.2
20190221133917 37 26 1.7 4.3 0.00 0.66 0.50 92 1010.1
20190221133417 37 18 1.7 4.3 0.00 0.66 0.50 92 1010.1
20190221132916 37 25 2.6 5.2 0.00 0.66 0.50 92 1010.1
20190221132416 37 26 2.6 6.1 0.00 0.66 0.50 93 1009.9
20190221131917 36 26 2.6 6.1 0.00 0.66 0.50 92 1009.8
20190221131416 36 33 2.6 6.1 0.00 0.66 0.50 93 1009.8
20190221130916 36 16 2.6 7.0 0.00 0.66 0.50 93 1009.8
20190221130416 36 16 4.3 7.0 0.00 0.66 0.50 93 1009.8
20190221125917 36 24 3.5 7.0 0.00 0.66 0.50 93 1009.8
20190221125417 36 24 4.3 7.0 0.00 0.66 0.50 93 1009.8
20190221124916 36 25 4.3 7.8 0.00 0.66 0.50 93 1009.7
20190221124416 36 10 4.3 7.8 0.00 0.66 0.50 93 1009.4
20190221123917 36 0 3.5 7.8 0.00 0.66 0.50 93 1009.4
20190221123416 36 18 1.7 7.8 0.00 0.66 0.50 93 1009.2
20190221122916 36 16 2.6 7.8 0.00 0.66 0.50 93 1009.3
20190221122417 36 5 4.3 7.8 0.00 0.66 0.50 93 1009.0
20190221121916 36 15 5.2 8.7 0.00 0.66 0.50 93 1009.0
20190221121415 36 24 5.2 8.7 0.00 0.66 0.50 93 1008.9
20190221120916 36 15 5.2 8.7 0.00 0.66 0.50 93 1008.8
20190221120417 36 37 5.2 8.7 0.00 0.66 0.50 93 1009.0
20190221115914 36 22 6.1 9.6 0.00 0.66 0.50 93 1009.1
20190221115415 36 48 6.1 9.6 0.00 0.66 0.50 93 1009.2
20190221114914 36 29 7.0 10.4 0.00 0.66 0.50 93 1008.9
20190221114414 35 59 7.0 10.4 0.00 0.66 0.50 93 1008.6
20190221113913 35 45 7.0 10.4 0.00 0.66 0.50 93 1008.4
20190221113415 35 14 7.0 10.4 0.00 0.66 0.50 93 1008.4
20190221112914 35 46 6.1 10.4 0.00 0.66 0.50 93 1008.3
20190221112413 35 32 6.1 10.4 0.00 0.66 0.50 93 1008.3
20190221111913 36 47 5.2 9.6 0.00 0.66 0.50 93 1008.2
20190221111414 36 47 4.3 8.7 0.00 0.66 0.50 93 1008.1
20190221110915 36 45 6.1 10.4 0.00 0.66 0.50 93 1008.1
20190221110414 36 51 6.1 11.3 0.00 0.66 0.50 93 1008.2
20190221105914 36 51 6.1 11.3 0.00 0.66 0.50 93 1008.1
20190221105415 36 34 6.1 11.3 0.00 0.66 0.50 93 1008.3
20190221104914 36 65 7.8 12.2 0.00 0.66 0.50 93 1008.2
20190221104415 36 42 7.8 12.2 0.00 0.66 0.50 93 1008.2
20190221103914 37 56 7.8 12.2 0.00 0.66 0.50 93 1008.0
20190221103415 38 42 7.0 12.2 0.00 0.66 0.50 93 1008.1
20190221102914 39 66 7.0 13.9 0.00 0.66 0.50 94 1008.0
20190221102414 39 64 6.1 13.9 0.00 0.66 0.50 94 1008.0
20190221101914 39 51 6.1 12.2 0.01 0.66 0.50 94 1008.0
20190221101415 39 82 5.2 8.7 0.01 0.66 0.50 93 1007.6
20190221100915 39 84 5.2 7.8 0.01 0.66 0.50 93 1007.7
20190221100413 39 90 6.1 8.7 0.01 0.66 0.50 93 1007.8
20190221095913 39 88 5.2 8.7 0.01 0.66 0.50 93 1007.9
20190221095415 39 88 5.2 9.6 0.01 0.66 0.50 93 1007.9
20190221094913 39 114 5.2 9.6 0.01 0.66 0.50 94 1007.9
20190221094414 39 82 5.2 8.7 0.02 0.66 0.50 94 1008.2
20190221093913 39 94 4.3 7.8 0.02 0.66 0.50 94 1008.3
20190221093415 39 84 3.5 7.0 0.02 0.66 0.50 94 1008.3
20190221092913 39 103 4.3 10.4 0.02 0.66 0.50 94 1008.3
20190221092415 39 107 7.0 13.0 0.03 0.66 0.50 94 1008.4
20190221091915 39 103 7.0 13.0 0.02 0.65 0.50 93 1008.4
20190221091415 39 350 7.8 13.0 0.02 0.65 0.49 93 1008.9
20190221090913 39 132 7.0 13.0 0.03 0.65 0.49 93 1008.1
20190221090413 39 121 3.5 8.7 0.03 0.65 0.49 93 1008.4
20190221085913 39 142 2.6 10.4 0.04 0.65 0.49 93 1008.6
20190221085414 39 163 5.2 12.2 0.05 0.65 0.49 94 1008.6
20190221084915 38 109 6.1 12.2 0.06 0.65 0.49 94 1008.6
20190221084413 38 123 6.1 12.2 0.06 0.64 0.48 93 1008.9
20190221083913 38 142 5.2 12.2 0.07 0.64 0.48 93 1008.9
20190221083413 38 143 3.5 8.7 0.08 0.64 0.48 93 1009.2
20190221082914 38 106 3.5 8.7 0.09 0.64 0.48 93 1009.4
20190221082413 38 163 5.2 13.0 0.09 0.63 0.47 93 1009.6
20190221081914 38 164 6.1 14.8 0.10 0.63 0.47 93 1009.2
20190221081413 38 149 7.0 14.8 0.11 0.63 0.47 93 1009.5
20190221080913 38 150 7.0 12.2 0.11 0.62 0.46 93 1009.7
20190221080411 38 157 5.2 10.4 0.12 0.62 0.46 93 1010.0
20190221075911 37 175 6.1 13.9 0.12 0.61 0.45 93 1010.2
20190221075413 37 182 7.8 13.9 0.12 0.60 0.44 93 1010.9
20190221074911 37 190 9.6 17.4 0.12 0.59 0.43 93 1010.9
20190221074412 37 157 10.4 17.4 0.11 0.58 0.42 93 1011.1
20190221073913 37 144 8.7 17.4 0.11 0.57 0.41 93 1011.2
20190221073412 37 161 7.8 15.6 0.11 0.56 0.40 93 1011.3
20190221072912 37 142 7.8 14.8 0.11 0.55 0.39 93 1011.7
20190221072412 37 156 7.8 14.8 0.12 0.54 0.38 93 1012.2
20190221071910 37 155 7.8 17.4 0.12 0.53 0.37 93 1012.6
20190221071409 37 159 7.8 17.4 0.13 0.52 0.36 93 1012.6
20190221070911 37 165 7.8 13.9 0.13 0.51 0.35 93 1012.7
20190221070409 37 171 7.8 13.9 0.13 0.50 0.34 93 1013.0
20190221065909 37 153 7.8 14.8 0.13 0.49 0.33 93 1013.1
20190221065409 36 168 7.0 14.8 0.14 0.48 0.32 93 1013.5
20190221064910 36 144 7.0 13.0 0.14 0.47 0.31 93 1013.8
20190221064407 36 165 7.8 15.6 0.17 0.47 0.31 93 1013.8
20190221063908 36 132 8.7 15.6 0.17 0.46 0.30 93 1014.1
20190221063407 36 150 8.7 15.6 0.17 0.45 0.29 93 1014.5
20190221062908 36 156 7.8 13.9 0.17 0.44 0.28 93 1014.8
20190221062407 35 114 7.0 13.0 0.16 0.42 0.26 93 1015.2
20190221061907 35 179 6.1 12.2 0.17 0.41 0.25 92 1015.5
20190221061407 35 122 6.1 14.8 0.17 0.39 0.23 92 1015.8
20190221060907 35 192 7.8 14.8 0.18 0.38 0.22 92 1015.9
20190221060408 35 175 7.8 13.9 0.19 0.37 0.21 92 1016.0
20190221055907 35 165 6.1 13.0 0.20 0.36 0.20 92 1016.1
20190221055408 35 186 5.2 11.3 0.20 0.34 0.18 92 1016.7
20190221054905 35 142 7.0 11.3 0.20 0.32 0.16 92 1016.7
20190221054406 35 156 7.0 13.9 0.20 0.30 0.15 92 1016.8
20190221053905 34 198 7.0 13.9 0.19 0.29 0.13 92 1017.0
20190221053405 34 159 7.0 13.9 0.19 0.28 0.12 92 1017.0
20190221052906 34 158 7.0 13.9 0.20 0.27 0.11 92 1017.3
20190221052405 34 180 7.0 14.8 0.19 0.26 0.10 92 1017.3
20190221051904 34 159 7.8 14.8 0.17 0.24 0.08 92 1017.5
20190221051405 34 202 8.7 13.9 0.16 0.22 0.06 92 1017.6
20190221050905 34 149 7.8 13.9 0.14 0.20 0.04 92 1017.7
20190221050406 34 166 7.0 13.0 0.13 0.18 0.02 92 1017.9
20190221045903 34 145 6.1 12.2 0.12 0.16 0.16 92 1018.2
20190221045403 34 131 6.1 12.2 0.11 0.14 0.14 92 1018.7
20190221044904 33 144 6.1 12.2 0.09 0.12 0.12 92 1018.8
20190221044403 33 145 7.0 13.0 0.07 0.10 0.10 92 1018.8
20190221043903 33 190 6.1 13.0 0.08 0.10 0.10 92 1018.9
20190221043404 33 184 7.0 13.0 0.07 0.09 0.09 92 1019.0
20190221042904 33 176 7.0 13.0 0.05 0.07 0.07 92 1019.4
20190221042403 33 134 6.1 12.2 0.06 0.07 0.07 92 1019.5
20190221041903 33 160 6.1 10.4 0.06 0.07 0.07 92 1019.7
20190221041403 33 153 6.1 11.3 0.06 0.06 0.06 91 1019.8
20190221040903 33 182 7.0 12.2 0.06 0.06 0.06 91 1020.1
20190221040404 33 152 7.0 12.2 0.05 0.05 0.05 91 1020.3
20190221035903 33 146 6.1 12.2 0.04 0.04 0.04 91 1020.4
20190221035404 33 190 6.1 12.2 0.03 0.03 0.03 91 1020.5
20190221034902 33 186 6.1 11.3 0.03 0.03 0.03 91 1020.7
20190221034401 33 194 6.1 12.2 0.03 0.03 0.03 91 1020.9
20190221033901 33 170 6.1 13.9 0.02 0.02 0.02 91 1020.9
20190221033401 33 173 7.0 13.9 0.02 0.02 0.02 91 1021.0
20190221032902 33 169 6.1 12.2 0.02 0.02 0.02 91 1021.2
20190221032401 33 163 6.1 12.2 0.01 0.01 0.01 91 1021.5
20190221031902 33 144 6.1 11.3 0.01 0.01 0.01 91 1021.6
20190221031358 33 202 7.0 13.9 0.00 0.00 0.00 91 1021.7
20190221030901 33 167 7.0 13.9 0.00 0.00 0.00 91 1021.9
20190221030359 33 173 7.0 13.0 0.00 0.00 0.00 91 1022.2
20190221025859 33 172 6.1 12.2 0.00 0.00 0.00 91 1022.2
20190221025400 33 157 6.1 13.9 0.00 0.00 0.00 90 1022.4
20190221024859 32 198 7.0 13.9 0.00 0.00 0.00 90 1022.4
20190221024359 32 156 6.1 12.2 0.00 0.00 0.00 90 1022.5
20190221023859 32 182 6.1 12.2 0.00 0.00 0.00 90 1022.6
20190221023359 32 168 7.0 13.0 0.00 0.00 0.00 90 1022.6
20190221022900 32 165 7.0 13.0 0.00 0.00 0.00 90 1022.7
20190221022357 32 161 6.1 13.0 0.00 0.00 0.00 90 1022.7
20190221021858 32 172 7.0 13.0 0.00 0.00 0.00 90 1022.7
20190221021357 32 203 7.0 13.0 0.00 0.00 0.00 89 1023.0
20190221020857 32 161 7.0 13.0 0.00 0.00 0.00 89 1023.4
20190221020401 32 161 7.0 13.0 0.00 0.00 0.00 89 1023.6
20190221015857 32 167 7.0 13.0 0.00 0.00 0.00 89 1023.8
20190221015401 32 168 7.0 13.0 0.00 0.00 0.00 89 1023.9
20190221014858 31 153 6.1 13.0 0.00 0.00 0.00 89 1023.9
20190221014403 32 159 5.2 12.2 0.00 0.00 0.00 89 1024.2
20190221013859 31 164 5.2 11.3 0.00 0.00 0.00 89 1024.3
20190221013357 31 169 6.1 12.2 0.00 0.00 0.00 88 1024.3
20190221012857 31 205 6.1 16.5 0.00 0.00 0.00 87 1024.2
20190221012358 31 175 7.0 16.5 0.00 0.00 0.00 87 1024.2
20190221011857 31 175 7.0 15.6 0.00 0.00 0.00 87 1024.3
20190221011357 31 175 7.0 15.6 0.00 0.00 0.00 87 1024.2
20190221010858 31 163 6.1 12.2 0.00 0.00 0.00 86 1024.3
20190221010358 31 198 6.1 12.2 0.00 0.00 0.00 86 1024.5
20190221005857 30 176 6.1 12.2 0.00 0.00 0.00 86 1024.7
20190221005358 30 161 7.0 13.0 0.00 0.00 0.00 86 1024.7
20190221004855 30 165 6.1 13.0 0.00 0.00 0.00 86 1024.6
20190221004357 30 177 6.1 12.2 0.00 0.00 0.00 86 1024.9
20190221003855 30 165 6.1 11.3 0.00 0.00 0.00 86 1025.1
20190221003354 30 175 6.1 11.3 0.00 0.00 0.00 86 1025.2
20190221002856 30 178 5.2 10.4 0.00 0.00 0.00 86 1025.3
20190221002356 30 188 5.2 9.6 0.00 0.00 0.00 86 1025.3
20190221001855 30 175 4.3 9.6 0.00 0.00 0.00 86 1025.5
20190221001356 29 152 4.3 8.7 0.00 0.00 0.00 86 1025.7
20190221000856 29 169 4.3 8.7 0.00 0.00 0.00 86 1026.0
20190221000355 29 198 3.5 8.7 0.00 0.00 0.00 85 1026.1
20190220235854 29 195 2.6 7.0 0.00 0.00 0.00 85 1026.3
20190220235353 29 178 3.5 6.1 0.00 0.00 0.00 84 1026.3
20190220234853 29 178 3.5 7.8 0.00 0.00 0.00 84 1026.4
20190220234353 29 163 3.5 7.8 0.00 0.00 0.00 84 1026.6
20190220233853 29 166 3.5 7.0 0.00 0.00 0.00 83 1026.6
20190220233353 29 178 3.5 6.1 0.00 0.00 0.00 83 1026.7
20190220232851 29 171 2.6 6.1 0.00 0.00 0.00 82 1027.1
20190220232350 29 179 1.7 5.2 0.00 0.00 0.00 82 1027.3
20190220231852 29 194 1.7 4.3 0.00 0.00 0.00 81 1027.5
20190220231351 29 194 1.7 4.3 0.00 0.00 0.00 80 1027.6
20190220230851 29 194 1.7 4.3 0.00 0.00 0.00 80 1027.8
20190220230352 28 194 1.7 4.3 0.00 0.00 0.00 79 1028.0
20190220225851 28 194 0.9 4.3 0.00 0.00 0.00 78 1028.1
20190220225349 28 194 1.7 4.3 0.00 0.00 0.00 77 1028.0
20190220224850 28 194 1.7 4.3 0.00 0.00 0.00 76 1028.1
20190220224350 28 196 1.7 4.3 0.00 0.00 0.00 76 1028.1
20190220223849 28 198 0.9 4.3 0.00 0.00 0.00 75 1028.2
20190220223348 29 198 0.9 2.6 0.00 0.00 0.00 75 1028.3
20190220222850 29 183 1.7 4.3 0.00 0.00 0.00 74 1028.3
20190220222348 29 183 1.7 4.3 0.00 0.00 0.00 73 1028.2
20190220221847 29 184 1.7 3.5 0.00 0.00 0.00 73 1028.3
20190220221347 29 183 2.6 4.3 0.00 0.00 0.00 73 1028.2
20190220220845 29 179 1.7 4.3 0.00 0.00 0.00 72 1028.2
20190220220344 29 180 1.7 5.2 0.00 0.00 0.00 72 1028.2
20190220215846 29 180 1.7 5.2 0.00 0.00 0.00 71 1028.2
20190220215343 29 298 1.7 3.5 0.00 0.00 0.00 71 1028.3
20190220214843 29 298 0.9 3.5 0.00 0.00 0.00 71 1028.5
20190220214342 29 298 1.7 4.3 0.00 0.00 0.00 70 1028.6
20190220213842 29 298 1.7 4.3 0.00 0.00 0.00 70 1028.8